This is the latest recevied weather packets stored in our database for station/object SR8WXE. If no packets are shown the sender has not sent any weather packets the latest 1 day(s).
| Time | Temp. | Humidity | Pressure | Rain* | Wind** | Luminosity | Snow |
|---|---|---|---|---|---|---|---|
| 1777990244 | 25° C | 15% | 1008.8 hPa | 0 mm | 4.02 m/s, 250° | - | - |
| 1777989944 | 25° C | 17% | 1008.8 hPa | 0 mm | 1.79 m/s, 216° | - | - |
| 1777989643 | 25° C | 17% | 1008.8 hPa | 0 mm | 4.47 m/s, 220° | - | - |
| 1777989343 | 25° C | 17% | 1008.8 hPa | 0 mm | 0.89 m/s, 88° | - | - |
| 1777989043 | 25° C | 17% | 1008.9 hPa | 0 mm | 1.79 m/s, 181° | - | - |
| 1777988742 | 25° C | 18% | 1009 hPa | 0 mm | 0 m/s | - | - |
| 1777988442 | 25° C | 18% | 1009.2 hPa | 0 mm | 3.13 m/s, 154° | - | - |
| 1777988142 | 25° C | 19% | 1009.1 hPa | 0 mm | 1.79 m/s, 194° | - | - |
| 1777987842 | 25° C | 17% | 1009.2 hPa | 0 mm | 3.58 m/s, 212° | - | - |
| 1777987541 | 25° C | 18% | 1009.3 hPa | 0 mm | 3.58 m/s, 216° | - | - |
| 1777987241 | 25° C | 19% | 1009.3 hPa | 0 mm | 0.45 m/s, 175° | - | - |
| 1777986941 | 25° C | 18% | 1009.4 hPa | 0 mm | 4.02 m/s, 202° | - | - |
| 1777986640 | 25° C | 17% | 1009.4 hPa | 0 mm | 2.68 m/s, 222° | - | - |
| 1777986340 | 25° C | 17% | 1009.6 hPa | 0 mm | 4.47 m/s, 246° | - | - |
| 1777986040 | 25° C | 17% | 1009.5 hPa | 0 mm | 5.81 m/s, 226° | - | - |
| 1777985740 | 24.44° C | 17% | 1009.6 hPa | 0 mm | 2.24 m/s, 216° | - | - |
| 1777985439 | 24.44° C | 17% | 1009.6 hPa | 0 mm | 2.68 m/s, 209° | - | - |
| 1777985139 | 24.44° C | 17% | 1009.7 hPa | 0 mm | 2.24 m/s, 251° | - | - |
| 1777984839 | 24.44° C | 18% | 1009.8 hPa | 0 mm | 4.02 m/s, 208° | - | - |
| 1777984538 | 24.44° C | 18% | 1009.9 hPa | 0 mm | 4.02 m/s, 213° | - | - |
| 1777984238 | 24.44° C | 17% | 1010 hPa | 0 mm | 3.13 m/s, 171° | - | - |
| 1777983938 | 25° C | 18% | 1010 hPa | 0 mm | 2.68 m/s, 178° | - | - |
| 1777983638 | 25° C | 18% | 1010.1 hPa | 0 mm | 1.79 m/s, 236° | - | - |
| 1777983337 | 24.44° C | 19% | 1010.2 hPa | 0 mm | 4.02 m/s, 209° | - | - |
| 1777983037 | 24.44° C | 17% | 1010.3 hPa | 0 mm | 3.58 m/s, 236° | - | - |
* Rain latest hour (hover to see other rain measurements)
** Current wind speed in m/s (hover to see current wind gust speed)